Location: Camaret
(48.2753°N, 4.5961°W)
Time: 01:29:56
(UTC+00:00)

Cosmos 1812 Rocket - Pass Details

Date: 29 October 2020
Orbit: 605 x 633 km, 82.5° (Epoch: 26 November)

Event Time Altitude Azimuth Distance (km) Brightness Sun altitude
Rises 18:58:10 0° 183° (S) 2,889 7.0 -19.5°
Reaches altitude 10° 19:00:24 10° 181° (S) 1,983 6.1 -19.9°
Maximum altitude 19:04:47 75° 97° (E) 645 3.4 -20.6°
Drops below altitude 10° 19:09:09 10° 13° (NNE) 1,982 6.0 -21.4°
Sets 19:11:23 0° 12° (NNE) 2,888 6.9 -21.7°
